AWW18RC EGPH-EGFF

Flight info

Callsign AWW18RC
Flight time 1h 7m
Altitude 23000
Route GOSAM P600 FENIK L612 ELBUS DCT SUBUK DCT NOKIN N862 KARNO DCT ALHUP DCT LUCSA N862 WEVBE
Aircraft A320/M-SDE3FGHIRWY/LB1

Departure

Time 2026-04-21 09:11
Airport Edinburgh Airport (EGPH)

Arrival

Time 2026-04-21 10:19
Airport Cardiff International Airport (EGFF)
Time Latitude Longitude Altitude Speed Heading
2026-04-21 08:40 55.94922 -3.36433 112 ft 0 kts 147°
2026-04-21 08:46 55.94922 -3.36434 111 ft 0 kts 147°
2026-04-21 08:54 55.94924 -3.36435 111 ft 1 kts 147°
2026-04-21 08:55 55.94938 -3.36450 111 ft 3 kts 154°
2026-04-21 08:55 55.94955 -3.36464 110 ft 3 kts 166°
2026-04-21 08:55 55.94974 -3.36469 107 ft 3 kts 187°
2026-04-21 08:55 55.94991 -3.36460 108 ft 3 kts 227°
2026-04-21 08:56 55.94997 -3.36447 107 ft 1 kts 239°
2026-04-21 08:56 55.94998 -3.36444 110 ft 1 kts 239°
2026-04-21 08:58 55.94979 -3.36499 99 ft 13 kts 239°
2026-04-21 08:59 55.94942 -3.36608 109 ft 9 kts 239°
2026-04-21 08:59 55.94921 -3.36672 108 ft 3 kts 239°
2026-04-21 08:59 55.94920 -3.36674 108 ft 0 kts 239°
2026-04-21 09:00 55.94920 -3.36675 110 ft 1 kts 239°
2026-04-21 09:01 55.94905 -3.36720 108 ft 6 kts 242°
2026-04-21 09:01 55.94912 -3.36794 109 ft 13 kts 300°
2026-04-21 09:01 55.94907 -3.36957 109 ft 12 kts 243°
2026-04-21 09:01 55.94869 -3.37069 109 ft 9 kts 238°
2026-04-21 09:02 55.94840 -3.37151 109 ft 7 kts 238°
2026-04-21 09:02 55.94781 -3.37332 109 ft 27 kts 239°
2026-04-21 09:02 55.94688 -3.37601 108 ft 24 kts 238°
2026-04-21 09:03 55.94535 -3.38050 109 ft 19 kts 239°
2026-04-21 09:03 55.94472 -3.38233 109 ft 16 kts 238°
2026-04-21 09:03 55.94419 -3.38387 109 ft 13 kts 239°
2026-04-21 09:03 55.94377 -3.38515 109 ft 11 kts 239°
2026-04-21 09:04 55.94337 -3.38606 110 ft 8 kts 219°
2026-04-21 09:04 55.94299 -3.38651 110 ft 9 kts 213°
2026-04-21 09:04 55.94253 -3.38743 110 ft 0 kts 239°
2026-04-21 09:08 55.94251 -3.38747 110 ft 1 kts 239°
2026-04-21 09:08 55.94247 -3.38768 108 ft 2 kts 255°
2026-04-21 09:09 55.94289 -3.38868 109 ft 16 kts 329°
2026-04-21 09:09 55.94377 -3.38958 110 ft 11 kts 338°
2026-04-21 09:09 55.94437 -3.38909 111 ft 11 kts 58°
2026-04-21 09:09 55.94447 -3.38876 111 ft 1 kts 59°
2026-04-21 09:10 55.94456 -3.38849 109 ft 4 kts 60°
2026-04-21 09:10 55.94462 -3.38831 111 ft 0 kts 60°
2026-04-21 09:10 55.94468 -3.38811 110 ft 11 kts 60°
2026-04-21 09:10 55.94647 -3.38280 109 ft 86 kts 58°
2026-04-21 09:11 55.95064 -3.37048 112 ft 143 kts 60°
2026-04-21 09:11 55.95561 -3.35508 770 ft 142 kts 62°
2026-04-21 09:11 55.96053 -3.33950 1490 ft 145 kts 62°
2026-04-21 09:11 55.96619 -3.32411 2143 ft 152 kts 50°
2026-04-21 09:12 55.97454 -3.31050 2579 ft 174 kts 41°
2026-04-21 09:12 55.98472 -3.29604 2939 ft 199 kts 40°
2026-04-21 09:12 55.99693 -3.28131 3408 ft 227 kts 23°
2026-04-21 09:12 56.01347 -3.28055 4005 ft 255 kts 345°
2026-04-21 09:13 56.02799 -3.29858 4856 ft 272 kts 309°
2026-04-21 09:13 56.03506 -3.33028 5727 ft 283 kts 275°
2026-04-21 09:13 56.03374 -3.36562 6646 ft 287 kts 257°
2026-04-21 09:13 56.02850 -3.40030 7548 ft 291 kts 249°
2026-04-21 09:14 56.02194 -3.43473 8437 ft 295 kts 248°
2026-04-21 09:14 56.01527 -3.46958 9348 ft 298 kts 249°
2026-04-21 09:14 56.00894 -3.50514 10264 ft 302 kts 250°
2026-04-21 09:14 56.00294 -3.54176 10874 ft 317 kts 251°
2026-04-21 09:15 55.99692 -3.58108 11214 ft 338 kts 252°
2026-04-21 09:15 55.99092 -3.62238 11862 ft 347 kts 253°
2026-04-21 09:15 55.98497 -3.66448 12621 ft 353 kts 253°
2026-04-21 09:15 55.97897 -3.70731 13385 ft 358 kts 253°
2026-04-21 09:16 55.97288 -3.75063 14148 ft 362 kts 253°
2026-04-21 09:16 55.96664 -3.79444 14841 ft 366 kts 253°
2026-04-21 09:16 55.96028 -3.83867 15529 ft 370 kts 253°
2026-04-21 09:16 55.95372 -3.88388 16234 ft 373 kts 252°
2026-04-21 09:17 55.94713 -3.92886 16928 ft 376 kts 252°
2026-04-21 09:17 55.94008 -3.97398 17608 ft 378 kts 247°
2026-04-21 09:17 55.92824 -4.01552 18271 ft 376 kts 231°
2026-04-21 09:17 55.91094 -4.04997 18931 ft 372 kts 216°
2026-04-21 09:18 55.89001 -4.07694 19503 ft 372 kts 210°
2026-04-21 09:18 55.86854 -4.10311 20106 ft 375 kts 210°
2026-04-21 09:18 55.84689 -4.12948 20697 ft 379 kts 210°
2026-04-21 09:18 55.82504 -4.15607 21283 ft 382 kts 210°
2026-04-21 09:19 55.80300 -4.18289 21858 ft 386 kts 210°
2026-04-21 09:19 55.78079 -4.20997 22426 ft 389 kts 210°
2026-04-21 09:19 55.75771 -4.23490 22986 ft 387 kts 200°
2026-04-21 09:19 55.73242 -4.25047 23454 ft 384 kts 187°
2026-04-21 09:20 55.70626 -4.25545 23566 ft 370 kts 174°
2026-04-21 09:20 55.68153 -4.25035 23553 ft 349 kts 162°
2026-04-21 09:20 55.65897 -4.23643 23550 ft 340 kts 150°
2026-04-21 09:20 55.63832 -4.21647 23547 ft 338 kts 147°
2026-04-21 09:21 55.61782 -4.19614 23542 ft 338 kts 147°
2026-04-21 09:21 55.59728 -4.17596 23531 ft 338 kts 147°
2026-04-21 09:21 55.57672 -4.15584 23527 ft 338 kts 147°
2026-04-21 09:21 55.55616 -4.13577 23523 ft 338 kts 147°
2026-04-21 09:22 55.53558 -4.11575 23522 ft 338 kts 147°
2026-04-21 09:22 55.51499 -4.09574 23521 ft 338 kts 147°
2026-04-21 09:22 55.49441 -4.07574 23516 ft 338 kts 147°
2026-04-21 09:22 55.47385 -4.05577 23517 ft 338 kts 147°
2026-04-21 09:23 55.45328 -4.03578 23551 ft 338 kts 147°
2026-04-21 09:23 55.43272 -4.01580 23547 ft 337 kts 148°
2026-04-21 09:23 55.41219 -3.99593 23546 ft 336 kts 148°
2026-04-21 09:23 55.39171 -3.97618 23538 ft 335 kts 148°
2026-04-21 09:24 55.37130 -3.95650 23533 ft 335 kts 148°
2026-04-21 09:24 55.35090 -3.93681 23532 ft 334 kts 147°
2026-04-21 09:24 55.33081 -3.91740 23531 ft 334 kts 147°
2026-04-21 09:24 55.31048 -3.89783 23529 ft 333 kts 148°
2026-04-21 09:25 55.29014 -3.87827 23521 ft 333 kts 148°
2026-04-21 09:25 55.26980 -3.85871 23490 ft 333 kts 148°
2026-04-21 09:25 55.24933 -3.83904 23501 ft 338 kts 148°
2026-04-21 09:25 55.22863 -3.81936 23501 ft 339 kts 151°
2026-04-21 09:26 55.20649 -3.80445 23502 ft 343 kts 159°
2026-04-21 09:26 55.18375 -3.79213 23493 ft 342 kts 159°
2026-04-21 09:26 55.16106 -3.77980 23493 ft 341 kts 159°
2026-04-21 09:26 55.13841 -3.76743 23493 ft 341 kts 159°
2026-04-21 09:27 55.11576 -3.75501 23492 ft 341 kts 159°
2026-04-21 09:27 55.10047 -3.74658 23490 ft 341 kts 159°
2026-04-21 09:27 55.07783 -3.73413 23490 ft 341 kts 159°
2026-04-21 09:27 55.05518 -3.72171 23491 ft 341 kts 159°
2026-04-21 09:28 55.03252 -3.70935 23500 ft 341 kts 159°
2026-04-21 09:28 55.00985 -3.69701 23500 ft 341 kts 159°
2026-04-21 09:28 54.98721 -3.68473 23501 ft 341 kts 159°
2026-04-21 09:28 54.96454 -3.67245 23501 ft 341 kts 159°
2026-04-21 09:29 54.94188 -3.66018 23529 ft 341 kts 159°
2026-04-21 09:29 54.91926 -3.64789 23530 ft 340 kts 159°
2026-04-21 09:29 54.89672 -3.63562 23532 ft 339 kts 159°
2026-04-21 09:29 54.87453 -3.62361 23530 ft 338 kts 159°
2026-04-21 09:30 54.85208 -3.61149 23527 ft 338 kts 159°
2026-04-21 09:30 54.82936 -3.59917 23525 ft 337 kts 159°
2026-04-21 09:30 54.80698 -3.58705 23523 ft 337 kts 159°
2026-04-21 09:30 54.78462 -3.57496 23519 ft 337 kts 159°
2026-04-21 09:31 54.76226 -3.56292 23517 ft 337 kts 159°
2026-04-21 09:31 54.73989 -3.55091 23515 ft 336 kts 159°
2026-04-21 09:31 54.71753 -3.53893 23513 ft 336 kts 159°
2026-04-21 09:31 54.69547 -3.52710 23516 ft 336 kts 159°
2026-04-21 09:32 54.67312 -3.51515 23512 ft 336 kts 159°
2026-04-21 09:32 54.65077 -3.50318 23507 ft 336 kts 159°
2026-04-21 09:32 54.62839 -3.49123 23505 ft 336 kts 159°
2026-04-21 09:32 54.60605 -3.47932 23503 ft 336 kts 159°
2026-04-21 09:33 54.58369 -3.46740 23498 ft 336 kts 159°
2026-04-21 09:33 54.56132 -3.45547 23496 ft 336 kts 159°
2026-04-21 09:33 54.53896 -3.44355 23495 ft 336 kts 159°
2026-04-21 09:33 54.51659 -3.43166 23493 ft 336 kts 159°
2026-04-21 09:34 54.49420 -3.41983 23477 ft 336 kts 159°
2026-04-21 09:34 54.47184 -3.40803 23477 ft 336 kts 159°
2026-04-21 09:34 54.44947 -3.39618 23491 ft 336 kts 160°
2026-04-21 09:34 54.42708 -3.38431 23468 ft 338 kts 160°
2026-04-21 09:35 54.40457 -3.37241 23454 ft 339 kts 160°
2026-04-21 09:35 54.38199 -3.36051 23446 ft 340 kts 160°
2026-04-21 09:35 54.35934 -3.34859 23444 ft 341 kts 160°
2026-04-21 09:35 54.33664 -3.33664 23444 ft 341 kts 160°
2026-04-21 09:36 54.31392 -3.32470 23444 ft 342 kts 160°
2026-04-21 09:36 54.29115 -3.31274 23442 ft 342 kts 160°
2026-04-21 09:36 54.26838 -3.30078 23443 ft 343 kts 160°
2026-04-21 09:36 54.24559 -3.28884 23448 ft 343 kts 160°
2026-04-21 09:37 54.22276 -3.27686 23448 ft 343 kts 160°
2026-04-21 09:37 54.19997 -3.26491 23452 ft 343 kts 161°
2026-04-21 09:37 54.17658 -3.25513 23455 ft 350 kts 171°
2026-04-21 09:37 54.15216 -3.25099 23454 ft 354 kts 172°
2026-04-21 09:38 54.12759 -3.24722 23453 ft 356 kts 173°
2026-04-21 09:38 54.10294 -3.24341 23456 ft 356 kts 173°
2026-04-21 09:38 54.07835 -3.23958 23446 ft 355 kts 172°
2026-04-21 09:38 54.05377 -3.23572 23449 ft 355 kts 172°
2026-04-21 09:39 54.02923 -3.23185 23447 ft 353 kts 172°
2026-04-21 09:39 54.00474 -3.22789 23446 ft 354 kts 171°
2026-04-21 09:39 53.98064 -3.21994 23443 ft 352 kts 165°
2026-04-21 09:39 53.95676 -3.21077 23430 ft 352 kts 166°
2026-04-21 09:40 53.93265 -3.20155 23435 ft 361 kts 168°
2026-04-21 09:40 53.90825 -3.19227 23441 ft 367 kts 168°
2026-04-21 09:40 53.88329 -3.18278 23435 ft 368 kts 168°
2026-04-21 09:40 53.85829 -3.17329 23434 ft 369 kts 168°
2026-04-21 09:41 53.83323 -3.16380 23438 ft 369 kts 168°
2026-04-21 09:41 53.80821 -3.15435 23437 ft 368 kts 168°
2026-04-21 09:41 53.78318 -3.14491 23438 ft 369 kts 168°
2026-04-21 09:41 53.75817 -3.13549 23438 ft 368 kts 168°
2026-04-21 09:42 53.73315 -3.12606 23437 ft 368 kts 168°
2026-04-21 09:42 53.70834 -3.11675 23435 ft 360 kts 165°
2026-04-21 09:42 53.68395 -3.10766 23435 ft 364 kts 167°
2026-04-21 09:42 53.65896 -3.09834 23435 ft 370 kts 168°
2026-04-21 09:43 53.63375 -3.08891 23439 ft 372 kts 167°
2026-04-21 09:43 53.60858 -3.07950 23436 ft 371 kts 167°
2026-04-21 09:43 53.58336 -3.07004 23435 ft 372 kts 167°
2026-04-21 09:43 53.55818 -3.06058 23435 ft 371 kts 167°
2026-04-21 09:44 53.53303 -3.05116 23433 ft 370 kts 167°
2026-04-21 09:44 53.50785 -3.04177 23438 ft 371 kts 168°
2026-04-21 09:44 53.48264 -3.03243 23437 ft 371 kts 168°
2026-04-21 09:44 53.45743 -3.02309 23430 ft 372 kts 168°
2026-04-21 09:45 53.43214 -3.01375 23435 ft 372 kts 168°
2026-04-21 09:45 53.40689 -3.00443 23439 ft 372 kts 168°
2026-04-21 09:45 53.38166 -2.99508 23440 ft 371 kts 168°
2026-04-21 09:45 53.35642 -2.98574 23442 ft 371 kts 167°
2026-04-21 09:46 53.33125 -2.97644 23448 ft 371 kts 168°
2026-04-21 09:46 53.30610 -2.96713 23440 ft 371 kts 168°
2026-04-21 09:46 53.28089 -2.95785 23441 ft 371 kts 168°
2026-04-21 09:46 53.25572 -2.94857 23411 ft 371 kts 168°
2026-04-21 09:47 53.23051 -2.93930 23405 ft 371 kts 168°
2026-04-21 09:47 53.20531 -2.93008 23405 ft 371 kts 168°
2026-04-21 09:47 53.17987 -2.92077 23408 ft 377 kts 169°
2026-04-21 09:47 53.15426 -2.91138 23410 ft 377 kts 168°
2026-04-21 09:48 53.12863 -2.90199 23411 ft 377 kts 169°
2026-04-21 09:48 53.10297 -2.89259 23412 ft 378 kts 169°
2026-04-21 09:48 53.07707 -2.88511 23406 ft 377 kts 177°
2026-04-21 09:48 53.05090 -2.88490 23412 ft 376 kts 185°
2026-04-21 09:49 53.02479 -2.88725 23409 ft 376 kts 185°
2026-04-21 09:49 52.99991 -2.88945 23401 ft 376 kts 185°
2026-04-21 09:49 52.97285 -2.89181 23394 ft 375 kts 185°
2026-04-21 09:49 52.94677 -2.89403 23381 ft 376 kts 186°
2026-04-21 09:50 52.92064 -2.89627 23381 ft 376 kts 186°
2026-04-21 09:50 52.91178 -2.89703 23380 ft 377 kts 186°
2026-04-21 09:50 52.84268 -2.91071 23380 ft 376 kts 191°
2026-04-21 09:51 52.81675 -2.91679 23372 ft 376 kts 191°
2026-04-21 09:51 52.79082 -2.92283 23374 ft 377 kts 191°
2026-04-21 09:51 52.76487 -2.92887 23376 ft 377 kts 191°
2026-04-21 09:51 52.73892 -2.93491 23377 ft 377 kts 191°
2026-04-21 09:52 52.71294 -2.94077 23368 ft 378 kts 189°
2026-04-21 09:52 52.68662 -2.94326 23367 ft 379 kts 186°
2026-04-21 09:52 52.66026 -2.94541 23363 ft 380 kts 186°
2026-04-21 09:52 52.63383 -2.94762 23364 ft 380 kts 186°
2026-04-21 09:53 52.60740 -2.94984 23366 ft 381 kts 186°
2026-04-21 09:53 52.58095 -2.95208 23368 ft 381 kts 186°
2026-04-21 09:53 52.55447 -2.95434 23365 ft 381 kts 186°
2026-04-21 09:53 52.52802 -2.95658 23365 ft 381 kts 186°
2026-04-21 09:54 52.50115 -2.95884 23383 ft 396 kts 186°
2026-04-21 09:54 52.47330 -2.96117 23367 ft 404 kts 187°
2026-04-21 09:54 52.44519 -2.96347 23355 ft 402 kts 187°
2026-04-21 09:54 52.41753 -2.96566 22967 ft 395 kts 186°
2026-04-21 09:55 52.39024 -2.96782 22512 ft 391 kts 186°
2026-04-21 09:55 52.36324 -2.96996 22059 ft 387 kts 186°
2026-04-21 09:55 52.33646 -2.97209 21582 ft 383 kts 186°
2026-04-21 09:55 52.30997 -2.97425 21134 ft 380 kts 186°
2026-04-21 09:56 52.28369 -2.97641 20677 ft 377 kts 186°
2026-04-21 09:56 52.25798 -2.97851 20221 ft 374 kts 185°
2026-04-21 09:56 52.23206 -2.98067 19748 ft 372 kts 186°
2026-04-21 09:56 52.20625 -2.98285 19272 ft 371 kts 186°
2026-04-21 09:57 52.18043 -2.98501 18756 ft 372 kts 183°
2026-04-21 09:57 52.15471 -2.98712 18333 ft 368 kts 183°
2026-04-21 09:57 52.12926 -2.98917 17940 ft 363 kts 183°
2026-04-21 09:57 52.10414 -2.99118 17486 ft 360 kts 183°
2026-04-21 09:58 52.07920 -2.99318 17068 ft 357 kts 182°
2026-04-21 09:58 52.05447 -2.99514 16641 ft 354 kts 182°
2026-04-21 09:58 52.02995 -2.99705 16292 ft 350 kts 182°
2026-04-21 09:58 52.00569 -2.99897 15919 ft 347 kts 183°
2026-04-21 09:59 51.98172 -3.00087 15589 ft 342 kts 182°
2026-04-21 09:59 51.95823 -3.00275 15424 ft 333 kts 182°
2026-04-21 09:59 51.93538 -3.00507 15196 ft 327 kts 184°
2026-04-21 09:59 51.91277 -3.00847 14865 ft 325 kts 185°
2026-04-21 10:00 51.89040 -3.01243 14557 ft 322 kts 186°
2026-04-21 10:00 51.86828 -3.01652 14255 ft 318 kts 185°
2026-04-21 10:00 51.84637 -3.02047 13929 ft 315 kts 184°
2026-04-21 10:00 51.82472 -3.02426 13632 ft 311 kts 184°
2026-04-21 10:01 51.80330 -3.02788 13342 ft 309 kts 183°
2026-04-21 10:01 51.78199 -3.03143 13038 ft 306 kts 184°
2026-04-21 10:01 51.76085 -3.03501 12744 ft 306 kts 186°
2026-04-21 10:01 51.74021 -3.04299 12449 ft 305 kts 199°
2026-04-21 10:02 51.70245 -3.07391 11860 ft 303 kts 207°
2026-04-21 10:02 51.68385 -3.08996 11564 ft 303 kts 206°
2026-04-21 10:02 51.66534 -3.10587 11263 ft 301 kts 206°
2026-04-21 10:03 51.64693 -3.12164 10965 ft 298 kts 206°
2026-04-21 10:03 51.62861 -3.13733 10673 ft 299 kts 206°
2026-04-21 10:03 51.61033 -3.15297 10371 ft 299 kts 205°
2026-04-21 10:03 51.59203 -3.16862 10060 ft 296 kts 206°
2026-04-21 10:04 51.57387 -3.18417 9698 ft 295 kts 206°
2026-04-21 10:04 51.55581 -3.19962 9414 ft 292 kts 204°
2026-04-21 10:04 51.53782 -3.21501 9130 ft 293 kts 202°
2026-04-21 10:04 51.51985 -3.23036 8853 ft 293 kts 204°
2026-04-21 10:05 51.50194 -3.24565 8579 ft 290 kts 206°
2026-04-21 10:05 51.48413 -3.26087 8299 ft 289 kts 205°
2026-04-21 10:05 51.46641 -3.27595 8021 ft 287 kts 204°
2026-04-21 10:05 51.44880 -3.29089 7739 ft 286 kts 204°
2026-04-21 10:06 51.43135 -3.30566 7472 ft 277 kts 204°
2026-04-21 10:06 51.41496 -3.31963 7240 ft 259 kts 204°
2026-04-21 10:06 51.39946 -3.33287 7049 ft 250 kts 204°
2026-04-21 10:06 51.38382 -3.34613 6944 ft 267 kts 204°
2026-04-21 10:07 51.36760 -3.36168 6814 ft 285 kts 216°
2026-04-21 10:07 51.35545 -3.38718 6693 ft 294 kts 240°
2026-04-21 10:07 51.34715 -3.41719 6555 ft 291 kts 244°
2026-04-21 10:07 51.34170 -3.44756 6415 ft 280 kts 266°
2026-04-21 10:08 51.34474 -3.47732 6284 ft 266 kts 292°
2026-04-21 10:08 51.35202 -3.50372 6150 ft 254 kts 297°
2026-04-21 10:08 51.35952 -3.52874 6018 ft 247 kts 298°
2026-04-21 10:08 51.36698 -3.55336 5881 ft 245 kts 298°
2026-04-21 10:09 51.37440 -3.57799 5598 ft 245 kts 298°
2026-04-21 10:09 51.38175 -3.60259 5316 ft 245 kts 298°
2026-04-21 10:09 51.38905 -3.62711 5043 ft 244 kts 298°
2026-04-21 10:09 51.39630 -3.65161 4736 ft 243 kts 298°
2026-04-21 10:10 51.40345 -3.67603 4442 ft 241 kts 298°
2026-04-21 10:10 51.41284 -3.69757 4163 ft 231 kts 324°
2026-04-21 10:10 51.42576 -3.70998 3922 ft 205 kts 349°
2026-04-21 10:10 51.43898 -3.71290 3629 ft 182 kts 13°
2026-04-21 10:11 51.45068 -3.70862 3339 ft 165 kts 33°
2026-04-21 10:11 51.46011 -3.69934 3076 ft 154 kts 49°
2026-04-21 10:11 51.46699 -3.68663 3008 ft 150 kts 63°
2026-04-21 10:11 51.47121 -3.67168 3006 ft 147 kts 77°
2026-04-21 10:12 51.47259 -3.65558 3008 ft 146 kts 91°
2026-04-21 10:12 51.47129 -3.63941 3010 ft 147 kts 99°
2026-04-21 10:12 51.46939 -3.62345 3002 ft 142 kts 98°
2026-04-21 10:12 51.46760 -3.60820 3007 ft 137 kts 98°
2026-04-21 10:13 51.46585 -3.59329 3011 ft 135 kts 99°
2026-04-21 10:13 51.46409 -3.57851 3014 ft 135 kts 99°
2026-04-21 10:13 51.46293 -3.56878 3011 ft 134 kts 99°
2026-04-21 10:13 51.46115 -3.55411 2995 ft 135 kts 102°
2026-04-21 10:14 51.45768 -3.54013 2835 ft 135 kts 110°
2026-04-21 10:14 51.45376 -3.52646 2659 ft 135 kts 111°
2026-04-21 10:14 51.44967 -3.51281 2494 ft 136 kts 111°
2026-04-21 10:14 51.44564 -3.49969 2299 ft 128 kts 111°
2026-04-21 10:15 51.44170 -3.48699 2126 ft 125 kts 110°
2026-04-21 10:15 51.43782 -3.47454 1941 ft 124 kts 109°
2026-04-21 10:15 51.43399 -3.46230 1773 ft 122 kts 110°
2026-04-21 10:15 51.43014 -3.44998 1591 ft 124 kts 110°
2026-04-21 10:16 51.42628 -3.43768 1422 ft 125 kts 110°
2026-04-21 10:16 51.42236 -3.42517 1231 ft 126 kts 109°
2026-04-21 10:16 51.41845 -3.41277 1059 ft 123 kts 110°
2026-04-21 10:16 51.41458 -3.40046 887 ft 124 kts 112°
2026-04-21 10:17 51.41315 -3.39588 824 ft 126 kts 113°
2026-04-21 10:17 51.41086 -3.38827 791 ft 127 kts 114°
2026-04-21 10:18 51.40691 -3.37590 584 ft 122 kts 112°
2026-04-21 10:18 51.40305 -3.36377 388 ft 124 kts 112°
2026-04-21 10:18 51.39918 -3.35154 228 ft 120 kts 111°
2026-04-21 10:18 51.39637 -3.34246 221 ft 50 kts 118°
2026-04-21 10:19 51.39606 -3.34000 224 ft 16 kts 69°
2026-04-21 10:19 51.39630 -3.33832 223 ft 15 kts 54°
2026-04-21 10:19 51.39706 -3.33840 221 ft 0 kts 358°
2026-04-21 10:19 51.39714 -3.33862 221 ft 13 kts 298°
2026-04-21 10:20 51.39752 -3.33954 221 ft 6 kts 33°
2026-04-21 10:20 51.39760 -3.33874 221 ft 8 kts 84°
2026-04-21 10:20 51.39762 -3.33850 221 ft 0 kts 82°
2026-04-21 10:20 51.39762 -3.33851 221 ft 0 kts 82°